This is the latest recevied weather packets stored in our database for station/object SP1BMW-13. If no packets are shown the sender has not sent any weather packets the latest 10 day(s).
| Time | Temp. | Humidity | Pressure | Rain* | Wind** | Luminosity | Snow |
|---|---|---|---|---|---|---|---|
| 1778252160 | 13.89° C | 52% | 1019.4 hPa | 0 mm | 0.45 m/s, 47° | 139 W/m² | - |
| 1778252100 | 13.89° C | 51% | 1019.4 hPa | 0 mm | 1.34 m/s, 5° | 143 W/m² | - |
| 1778252040 | 13.89° C | 52% | 1019.3 hPa | 0 mm | 0.45 m/s, 349° | 148 W/m² | - |
| 1778251980 | 13.89° C | 51% | 1019.4 hPa | 0 mm | 1.79 m/s, 297° | 152 W/m² | - |
| 1778251920 | 13.89° C | 53% | 1019.2 hPa | 0 mm | 0.89 m/s, 346° | 156 W/m² | - |
| 1778251860 | 13.89° C | 52% | 1019.5 hPa | 0 mm | 0.89 m/s, 332° | 158 W/m² | - |
| 1778251800 | 13.89° C | 52% | 1019.4 hPa | 0 mm | 0.89 m/s, 336° | 159 W/m² | - |
| 1778251740 | 13.89° C | 52% | 1019.4 hPa | 0 mm | 0.89 m/s, 314° | 163 W/m² | - |
| 1778251680 | 14.44° C | 53% | 1019.3 hPa | 0 mm | 0 m/s | 170 W/m² | - |
| 1778251620 | 14.44° C | 52% | 1019.2 hPa | 0 mm | 1.34 m/s, 308° | 182 W/m² | - |
| 1778251560 | 14.44° C | 52% | 1019.2 hPa | 0 mm | 0.45 m/s, 335° | 186 W/m² | - |
| 1778251500 | 14.44° C | 52% | 1019.3 hPa | 0 mm | 1.79 m/s, 345° | 188 W/m² | - |
| 1778251440 | 14.44° C | 52% | 1019.4 hPa | 0 mm | 0.45 m/s, 350° | 184 W/m² | - |
| 1778251381 | 14.44° C | 54% | 1019.2 hPa | 0 mm | 0.45 m/s, 348° | 179 W/m² | - |
| 1778251320 | 13.89° C | 52% | 1019.3 hPa | 0 mm | 0.45 m/s, 97° | 173 W/m² | - |
| 1778251200 | 13.89° C | 53% | 1019.4 hPa | 0 mm | 0 m/s | 171 W/m² | - |
| 1778251140 | 13.89° C | 51% | 1019.4 hPa | 0 mm | 0 m/s | 173 W/m² | - |
| 1778251080 | 13.89° C | 51% | 1019.4 hPa | 0 mm | 0.45 m/s, 66° | 177 W/m² | - |
| 1778251020 | 13.89° C | 54% | 1019.5 hPa | 0 mm | 0 m/s | 182 W/m² | - |
| 1778250960 | 13.89° C | 52% | 1019.4 hPa | 0 mm | 1.34 m/s, 333° | 186 W/m² | - |
| 1778250901 | 13.89° C | 52% | 1019.6 hPa | 0 mm | 0.45 m/s, 53° | 188 W/m² | - |
| 1778250840 | 13.89° C | 52% | 1019.5 hPa | 0 mm | 0.45 m/s, 265° | 187 W/m² | - |
| 1778250780 | 13.89° C | 52% | 1019.5 hPa | 0 mm | 0.45 m/s, 25° | 185 W/m² | - |
| 1778250720 | 13.89° C | 52% | 1019.5 hPa | 0 mm | 1.34 m/s, 338° | 182 W/m² | - |
| 1778250660 | 13.89° C | 52% | 1019.4 hPa | 0 mm | 0.89 m/s, 301° | 179 W/m² | - |
* Rain latest hour (hover to see other rain measurements)
** Current wind speed in m/s (hover to see current wind gust speed)